Regional Weather Roundup
Issued by NWS

Home | Current Version | Previous Version | Text Only | Print | Product List | Glossary Off
Versions: 1 2 3 4 5 6 7 8 9 10 11 12 13 14 15 16 17 18 19 20 21 22 23 24 25 26 27 28 29 30 31 32 33 34 35 36 37 38 39 40 41 42 43 44 45 46 47 48 49 50

000
ASUS45 KTFX 280219
RWRMT
MONTANA HOURLY WEATHER ROUNDUP
NATIONAL WEATHER SERVICE GREAT FALLS MT
819 PM MDT WED AUG 27 2014

NOTE: "FAIR" INDICATES FEW OR NO CLOUDS BELOW 12000 FEET WITH NO
SIGNIFICANT WEATHER AND/OR OBSTRUCTIONS TO VISIBILITY.

* THESE STATIONS ARE NOT UNDER NWS QUALITY CONTROL. THEY DO NOT
   REPORT WEATHER SUCH AS PRECIPITATION OR FOG.

MTZ001>007-043-280300-
WEST OF THE DIVIDE
CITY           SKY/WX    TMP DP  RH WIND       PRES   REMARKS
KALISPELL      CLEAR     79  46  31 S8        29.97F
MISSOULA       CLEAR     81  48  32 S6        30.02S
BUTTE          CLEAR     70  45  41 W6        30.17S
MULLAN PASS    CLEAR     66  39  37 CALM      30.20F
* LINCOLN      N/A       76  44  32 SW4G11     N/A
* LOOKOUT PASS N/A       70  44  39 NE1        N/A
* POLSON       N/A       74  45  36 N/A        N/A
* RONAN APT    CLEAR     82  48  31 N/A        N/A
* SEELEY LAKE  N/A       81  41  24 NW3G10     N/A
* THOMP F APT  CLEAR     72  43  35 SW6        N/A
$$

MTZ008-052>055-280300-
SOUTHWEST MONTANA
CITY           SKY/WX    TMP DP  RH WIND       PRES   REMARKS
BOZEMAN        CLEAR     70  48  46 SE6       30.10R
DILLON         CLEAR     72  46  40 SE6       30.13S
W YELLOWSTONE  MOCLDY    64  43  47 SW6       30.25R
* THREE FORKS  CLEAR     79  64  60 N/A        N/A
* BOULDER HILL N/A       66  34  31 SW3        N/A
* MONIDA PASS  N/A       65  42  43 SW11       N/A
* RAYNOLDS PAS N/A       64  62  93 NW2        N/A
* WHITEHALL    N/A       82  42  24 NW4        N/A
* WISE RIVER   N/A       73  41  32 W7G12      N/A
$$

MTZ009>010-012-014-046-048-049-054-280300-
EAST SLOPES AND CENTRAL MONTANA
CITY           SKY/WX    TMP DP  RH WIND       PRES   REMARKS
CUT BANK       CLEAR     73  46  38 SW8       30.01S
GREAT FALLS    CLEAR     73  48  41 W6        30.01S
HELENA         CLEAR     79  43  28 W7        30.04R
MALMSTROM AFB  CLEAR     73  50  44 SW6       30.01S
* CONRAD       CLEAR     79  48  34 W8         N/A
* EAST GLACIER N/A       70  45  41 W10        N/A
* MONARCH      N/A       70  36  29 W4         N/A
* PENDROY      N/A       74  40  29 NW9        N/A
* ROGERS PASS  N/A       65  46  50 NW2G7      N/A
* SAINT MARY   N/A       76  43  31 SW5G14     N/A
* SWEET GRASS  N/A       78  45  31 W12G17     N/A
* WHITE SULPH  N/A       71  46  41 SW1        N/A
$$

MTZ011-013-016-021-035-040-045-047-050-051-280300-
NORTH CENTRAL MONTANA
CITY           SKY/WX    TMP DP  RH WIND       PRES   REMARKS
HAVRE          FAIR      82  48  31 W3        29.90S
LEWISTOWN      CLEAR     75  43  32 CALM      30.06R
* CHINOOK      CLEAR     81  52  37 S3        29.90R
* FORT BENTON  CLEAR     81  46  29 W5        29.95R
* CHESTER      N/A       81  42  25 NW6        N/A
* DENTON       N/A       78  40  26 NW4        N/A
* GEYSER       N/A       74  38  27 W6         N/A
* JUDITH GAP   N/A       70  39  32 NW7        N/A
* LOMA         N/A       84  51  32 SW2        N/A
$$

MTZ017>020-022>027-061-062-280300-
NORTHEAST MONTANA
CITY           SKY/WX    TMP DP  RH WIND       PRES   REMARKS
GLASGOW        CLEAR     77  54  45 N3        29.91S
GLENDIVE       CLEAR     72  54  53 S7        29.98R
JORDAN         CLEAR     73  57  57 NW8       29.94S
SIDNEY         CLEAR     68  55  63 S7        29.96R
WOLF POINT     CLEAR     77  52  42 W5        29.90S
* BEAVER HILL  N/A       70  53  55 SE9        N/A
* CIRCLE       N/A       77  58  52 N/A        N/A
* LINDSAY DVD  N/A       72  51  48 S6         N/A
* NAVAJO       N/A       72  54  53 W8         N/A
$$

MTZ028>042-056>058-280300-
SOUTHCENTRAL AND SOUTHEAST MONTANA
CITY           SKY/WX    TMP DP  RH WIND       PRES   REMARKS
BAKER          MOCLDY    70  57  64 SE12      30.03R
BILLINGS       PTCLDY    79  45  30 N7        30.01S
LIVINGSTON     CLEAR     72  39  30 SW7       30.09S
MILES CITY     CLEAR     75  50  42 S6        29.96S
* LAUREL APT   PTCLDY    79  45  30 N/A        N/A
* ROUNDUP APT  CLEAR     79  46  31 N/A        N/A
* ALZADA       N/A       67  61  81 E5         N/A
* HYSHAM       N/A       79  41  26 N/A        N/A
* LAME DEER    N/A       72  51  48 N/A        N/A
* REED POINT   N/A       79  38  23 W4         N/A
* ROSCOE HILL  N/A       71  29  21 VRB4       N/A
$$

REGIONAL REPORTS...DAKOTAS
CITY           SKY/WX    TMP DP  RH WIND       PRES   REMARKS
WILLISTON      CLEAR     75  54  48 S9        29.94F
DICKINSON      MOCLDY    64  55  73 SE8       30.02R
BEACH          FOG       63  59  87 SE8       30.02R VSB 3
CROSBY         CLEAR     68  57  68 S9        29.93S
TIOGA          CLEAR     66  55  68 S10       30.00S
WATFORD CITY   CLEAR     72  52  49 SE10      29.96R
BISMARCK       PTCLDY    68  63  84 S6        30.04S
GRAND FORKS    CLEAR     64  57  78 SE5       30.06S
FARGO          CLEAR     63  59  87 E6        30.07S
BUFFALO SD     CLOUDY    64  61  90 SE8       30.00R
RAPID CITY     LGT RAIN  64  63  97 SE7       30.08R
$$

REGIONAL REPORTS...WYOMING/IDAHO/WASHINGTON
CITY           SKY/WX    TMP DP  RH WIND       PRES   REMARKS
GILLETTE       CLOUDY    61  57  87 S13       30.09F
SHERIDAN       CLOUDY    73  54  51 SE6       30.05S
CODY           MOCLDY    68  52  57 SE6       30.14R
YELLOWSTONE LA PTCLDY    59  39  48 VRB6      30.34R
SALMON         CLEAR     70  50  49 S6        30.06R
MULLAN PASS    CLEAR     66  39  37 CALM      30.20S
SAND POINT     CLEAR     72  55  55 CALM      29.95F
SPOKANE        FAIR      86  45  24 SW15      29.95F
$$

REGIONAL REPORTS...ALBERTA
CITY           SKY/WX    TMP DP  RH WIND       PRES   REMARKS
CALGARY        FAIR      77  37  24 W7        29.89F
LETHBRIDGE     FAIR      72  52  49 W8        29.91F
MEDICINE HAT   FAIR      81  52  37 CALM      29.85F
EDMONTON       TSTM      64  50  61 N13G20    29.89R
WATERTON GATE  N/A       68  46  45 SW7        N/A
CARDSTON       N/A       73  54  51 SW3        N/A
MILK RIVER     N/A       73  48  41 W9         N/A
$$

REGIONAL REPORTS...SASKATCHEWAN
CITY           SKY/WX    TMP DP  RH WIND       PRES   REMARKS
SWIFT CURRENT  HAZE      70  52  53 W8        29.86S
REGINA         N/A       72  61  68 SE6       29.86F
VAL MARIE      N/A       68  57  68 S6         N/A
ASSINIBOIA     N/A       72  52  49 S9         N/A
CORONACH       N/A       66  52  61 SW8        N/A

$$




USA.gov is the U.S. government's official web portal to all federal, state and local government web resources and services.